Regional Weather Roundup
Issued by NWS

Home | Current Version | Previous Version | Graphics & Text | Print | Product List | Glossary On
Versions: 1 2 3 4 5 6 7 8 9 10 11 12 13 14 15 16 17 18 19 20 21 22 23 24 25 26 27 28 29 30 31 32 33 34 35 36 37 38 39 40 41 42 43 44 45 46 47 48 49 50
267
ASUS45 KSLC 242310
RWRUT

UTAH REGIONAL WEATHER ROUNDUP
NATIONAL WEATHER SERVICE SALT LAKE CITY UT
500 PM MDT WED MAY 24 2017

UTZ001>011-023>025-250000-

NORTHERN UTAH

CITY           SKY/WX    TMP DP  RH WIND       PRES   REMARKS
BRIGHAM CITY   MOSUNNY   84  31  15 SW17G24   29.56F
DUGWAY         LGT RAIN  80  31  16 S12G18    29.58F
HILL AFB       PTSUNNY   80  37  21 SW8       29.61F
LOGAN          MOSUNNY   79  41  25 SW22G30   29.55F
OGDEN          MOSUNNY   82  36  19 SW8       29.58F
SALT LAKE CITY CLOUDY    83  38  20 W9        29.59F
TOOELE VALLEY  CLOUDY    82  39  21 SE8       29.60F
WENDOVER       MOSUNNY   88  32  13 W28G35    29.56
HEBER CITY     PTSUNNY   79  30  17 SW13      29.67F
WEST JORDAN    CLOUDY    82  50  32 S23G33    29.64S

$$

UTZ011>015-024>027-250000-

CENTRAL/NORTHEAST UTAH

CITY           SKY/WX    TMP DP  RH WIND       PRES   REMARKS
PROVO AIRPORT  PTSUNNY   80  40  23 NW7       29.63F
MOAB/CANYONLAN MOSUNNY   89  25  10 W9        29.62F
DELTA          PTSUNNY   84  28  13 SW12G18   29.63F
PRICE          MOSUNNY   82  25  12 W21G26    29.73F
ROOSEVELT      SUNNY     84  28  13 W24G33    29.67F
VERNAL         SUNNY     84  28  13 W21G29    29.64F

$$

UTZ013>016-019>022-027-250000-

SOUTHERN UTAH

CITY           SKY/WX    TMP DP  RH WIND       PRES   REMARKS
BRYCE CANYON   SUNNY     74  23  15 SW24G32   29.94F
CEDAR CITY     SUNNY     85  24  11 S18G31    29.78F
MILFORD        MOSUNNY   87  24  10 SW26G37   29.68F
ST GEORGE      MOCLDY    98  23   7 W21       29.60F HX  91
HANKSVILLE     PTSUNNY   88  27  11 W29G43    29.67R
BLANDING       SUNNY     83  24  11 SW23G29   29.87F

$$

REGIONAL REPORTS     COLORADO/ARIZONA

CITY           SKY/WX    TMP DP  RH WIND       PRES   REMARKS
CRAIG, CO      MOSUNNY   77  27  15 W29       29.72F
GRAND JUNCTION SUNNY     87  28  12 W15G21    29.67F
RIFLE, CO      SUNNY     83  25  12 W18G32    29.72F
MONTROSE, CO   CLOUDY    80  27  14 SW16G26   29.76F
CORTEZ, CO     SUNNY     82  25  12 W13G22    29.83F
COLORADO CITY    N/A     91  27   9 SW24G30   29.79F
PAGE, AZ       SUNNY     93  24   8 SW14G28   29.68F
GRAND CANYON   SUNNY     78  23  13 W17G30    29.94F
KINGMAN, AZ    PTSUNNY   94  28   9 SW21G32   29.74F
FLAGSTAFF, AZ  SUNNY     77  19  11 W15G31    29.99F

$$

REGIONAL REPORTS    NEVADA/IDAHO/WYOMING

CITY           SKY/WX    TMP DP  RH WIND       PRES   REMARKS
LAS VEGAS, NV  PTSUNNY   99   8   3 W16G25    29.57F HX  91
ELY, NY        PTSUNNY   74  28  18 W13G21    29.76F
ELKO, NV       SUNNY     82  22  11 W22G36    29.67F
POCATELLO, ID  MOSUNNY   73  39  29 W26G36    29.61F
BURLEY, ID     SUNNY     70  33  25 W18G28    29.60F
FORT BRIDGER,    N/A     73  30  20 W25G36    29.78F
EVANSTON, WY   MOSUNNY   72  34  24 SW28G39   29.76F
ROCK SPRINGS,  CLOUDY    73  29  19 W33G41    29.71F
KEMMERER, WY     N/A     68  32  26 SW33G45   29.74F

$$




USA.gov is the U.S. government's official web portal to all federal, state and local government web resources and services.